This demonstration page uses our WeatherBlox Daily Observations layout. Learn more.

Left ArrowRight Arrow

40.92945, -100.16068

Hourly Observations for July 30, 2021

Temp ( °F °C ) Dew Point ( °F °C ) Humidity (%) Winds ( mph kmh ) Pressure ( in mb ) Visibility ( mi km ) Precip ( " mm )
12:15 am 00:15 Cloudy 77 25 73 22.6 87 87 E 10 17 30.00 1016 10 16 N/A
12:35 am 00:35 Cloudy 77 25 73 22.6 87 87 E 8 13 30.00 1016 10 16 N/A
12:55 am 00:55 Cloudy 77 24.9 73 22.7 88 88 E 12 19 30.00 1016 10 16 N/A
1:15 am 01:15 Cloudy 76 24.7 73 22.6 88 88 E 10 17 30.00 1016 7 11 N/A
1:35 am 01:35 Cloudy 76 24.6 73 22.6 89 89 E 9 15 30.00 1016 7 11 N/A
1:55 am 01:55 Cloudy 76 24.5 73 22.5 89 89 E 10 17 30.00 1016 7 11 N/A
2:15 am 02:15 Cloudy 76 24.5 73 22.6 89 89 E 9 15 30.00 1016 7 11 N/A
2:35 am 02:35 Cloudy 76 24.4 73 22.6 90 90 ESE 10 17 29.99 1016 7 11 N/A
2:55 am 02:55 Cloudy 76 24.3 73 22.6 90 90 E 8 13 30.00 1016 7 11 N/A
3:15 am 03:15 Cloudy 76 24.3 73 22.7 91 91 ESE 8 13 29.99 1015 7 11 N/A
3:35 am 03:35 Cloudy 76 24.5 73 22.8 90 90 ESE 8 13 29.98 1015 7 11 N/A
3:55 am 03:55 Cloudy with Mist and Fog 76 24.5 73 23 91 91 ESE 9 15 29.99 1016 5 8 N/A
4:15 am 04:15 Cloudy with Mist and Fog 76 24.5 73 23 91 91 ESE 6 9 30.00 1016 5 8 N/A
4:35 am 04:35 Cloudy with Mist and Fog 76 24.5 73 23 91 91 ESE 7 11 30.00 1016 5 8 N/A
4:55 am 04:55 Cloudy with Mist and Fog 76 24.5 73 23 91 91 ESE 8 13 29.99 1016 5 8 N/A
5:15 am 05:15 Cloudy with Mist and Fog 76 24.2 73 23 93 93 E 6 9 30.00 1016 5 8 N/A
5:35 am 05:35 Cloudy with Mist and Fog 75 24.1 73 23 94 94 ESE 7 11 29.99 1015 5 8 N/A
5:55 am 05:55 Cloudy with Mist and Fog 75 24.1 73 23 94 94 ESE 7 11 30.00 1016 5 8 N/A
6:15 am 06:15 Cloudy with Mist and Fog 75 24.1 73 23 94 94 ESE 6 9 29.99 1015 5 8 N/A
6:35 am 06:35 Cloudy with Mist and Fog 75 24 73 23 94 94 ESE 8 13 29.99 1015 4 6 N/A
6:55 am 06:55 Cloudy with Mist and Fog 75 23.8 73 22.8 94 94 ESE 7 11 29.99 1016 3 5 N/A
7:15 am 07:15 Cloudy with Mist and Fog 75 24 73 22.9 94 94 ESE 8 13 29.99 1015 3 5 N/A
7:35 am 07:35 Cloudy with Mist and Fog 75 24.1 73 22.9 93 93 ESE 8 13 29.99 1015 4 6 N/A
7:55 am 07:55 Cloudy with Mist and Fog 76 24.3 73 22.9 92 92 SE 8 13 29.99 1015 4 6 N/A
8:15 am 08:15 Cloudy with Mist and Fog 76 24.5 73 22.8 90 90 ESE 10 17 29.98 1015 5 8 N/A
8:35 am 08:35 Cloudy with Mist and Fog 77 24.8 73 22.6 88 88 SE 9 15 29.98 1015 5 8 N/A
8:55 am 08:55 Mostly Cloudy 78 25.5 73 22.7 85 85 SE 9 15 29.98 1015 7 11 N/A
9:15 am 09:15 Mostly Cloudy 79 26.1 73 22.7 82 82 SE 8 13 29.97 1015 7 11 N/A
9:35 am 09:35 Partly Cloudy 80 26.6 73 22.9 80 80 SE 7 11 29.97 1015 7 11 N/A
9:55 am 09:55 Sunny 81 27.1 73 22.7 77 77 SE 5 7 29.96 1015 7 11 N/A
10:15 am 10:15 Sunny 82 27.7 73 22.7 74 74 SSE 5 7 29.96 1014 10 16 N/A
10:35 am 10:35 Sunny 82 28 73 22.8 73 73 SSE 5 7 29.94 1014 10 16 N/A
10:55 am 10:55 Sunny 84 28.9 73 22.6 69 69 S 6 9 29.94 1014 10 16 N/A
11:15 am 11:15 Sunny 84 28.8 73 22.6 69 69 ESE 3 6 29.94 1014 10 16 N/A
11:35 am 11:35 Partly Cloudy 86 30 72 22.2 63 63 SE 3 6 29.93 1013 10 16 N/A
11:55 am 11:55 Partly Cloudy 87 30.7 71 21.9 59 59 SSE 6 9 29.92 1013 10 16 N/A
12:15 pm 12:15 Partly Cloudy 87 30.7 71 21.8 59 59 N N/A 29.92 1013 10 16 N/A
12:35 pm 12:35 Partly Cloudy 87 30.8 71 21.9 59 59 S 5 7 29.92 1013 10 16 N/A
12:55 pm 12:55 Partly Cloudy 88 31 71 21.5 57 57 SSE 5 7 29.92 1013 10 16 N/A
1:15 pm 13:15 Mostly Cloudy 87 30.8 74 23.3 64 64 E 8 13 29.92 1013 10 16 N/A
1:35 pm 13:35 Partly Cloudy 87 30.7 74 23.6 66 66 ENE 12 19 29.91 1013 7 11 N/A
1:55 pm 13:55 Partly Cloudy 87 30.6 75 24.1 68 68 ENE 12 19 29.91 1013 10 16 N/A
2:15 pm 14:15 Hazy 85 29.5 74 23.6 71 71 E 14 22 29.92 1013 5 8 N/A
2:35 pm 14:35 Sunny 86 29.9 75 24 71 71 E 13 20 29.91 1013 10 16 N/A
2:55 pm 14:55 Sunny 87 30.5 76 24.5 70 70 E 14 22 29.90 1013 10 16 N/A
3:15 pm 15:15 Sunny 86 30.2 76 24.5 72 72 ESE 12 19 29.90 1012 10 16 N/A
3:35 pm 15:35 Sunny 88 31.1 76 24.5 68 68 E 14 22 29.88 1012 7 11 N/A
3:55 pm 15:55 Sunny 89 31.7 76 24.5 66 66 E 13 20 29.88 1012 10 16 N/A
4:15 pm 16:15 Sunny 90 32.2 77 25 66 66 ESE 12 19 29.86 1011 10 16 N/A
4:35 pm 16:35 Sunny 89 31.5 77 24.8 68 68 E 12 19 29.87 1011 10 16 N/A
4:55 pm 16:55 Sunny 89 31.8 77 25.1 68 68 E 13 20 29.85 1011 10 16 N/A
5:15 pm 17:15 Sunny 89 31.9 77 24.8 66 66 E 12 19 29.85 1011 10 16 N/A
5:35 pm 17:35 Sunny 91 32.7 77 24.9 64 64 SE 10 17 29.84 1010 10 16 N/A
5:55 pm 17:55 Sunny 92 33.1 76 24.4 60 60 SE 14 22 29.83 1010 10 16 N/A
6:15 pm 18:15 Sunny 90 32.2 76 24.6 64 64 ESE 14 22 29.83 1010 10 16 N/A
6:35 pm 18:35 Sunny 91 32.5 76 24.6 63 63 SE 12 19 29.82 1010 10 16 N/A
6:55 pm 18:55 Sunny 90 32.2 76 24.6 64 64 ESE 10 17 29.82 1010 10 16 N/A
7:15 pm 19:15 Sunny 90 32.1 76 24.6 65 65 ESE 7 11 29.82 1010 10 16 N/A
7:35 pm 19:35 Sunny 88 31.1 76 24.5 68 68 ESE 9 15 29.84 1011 10 16 N/A
7:55 pm 19:55 Sunny 87 30.7 77 25.1 72 72 E 9 15 29.84 1011 10 16 N/A
8:15 pm 20:15 Sunny 86 30.2 77 25.1 74 74 E 8 13 29.84 1010 7 11 N/A
8:35 pm 20:35 Sunny 85 29.6 77 25.1 77 77 E 7 11 29.84 1011 10 16 N/A
8:55 pm 20:55 Sunny 84 28.9 77 25.1 80 80 E 6 9 29.85 1011 10 16 N/A
9:15 pm 21:15 Partly Cloudy 82 28 78 25.5 86 86 E 7 11 29.86 1011 10 16 N/A
9:35 pm 21:35 Partly Cloudy 82 27.5 78 25.3 88 88 E 8 13 29.86 1011 10 16 N/A
9:55 pm 21:55 Clear 81 27.2 78 25.5 90 90 E 8 13 29.86 1011 10 16 N/A
10:15 pm 22:15 Partly Cloudy 81 27 78 25.5 92 92 E 9 15 29.87 1012 10 16 N/A
10:35 pm 22:35 Partly Cloudy 80 26.7 78 25.5 93 93 E 14 22 29.89 1012 7 11 N/A
10:55 pm 22:55 Partly Cloudy 80 26.5 77 25.2 93 93 E 9 15 29.90 1012 7 11 N/A
11:15 pm 23:15 Partly Cloudy 79 26 77 25 94 94 ENE 13 20 29.91 1013 7 11 N/A
11:35 pm 23:35 Cloudy with Mist and Fog 78 25.4 75 24 92 92 E 14 22 29.92 1013 5 8 N/A
11:55 pm 23:55 Cloudy with Mist and Fog 77 25.2 75 24 93 93 E 12 19 29.93 1013 5 8 N/A

Powered by AerisWeather